Location: Newark
(0.5300°S, 127.4800°E)
Time: 11:11:20
(UTC+00:00)

A-11 Canister half - Pass Details

Date: 17 September 2019
Orbit: 1514 x 1686 km, 47.2° (Epoch: 18 October)

Event Time Altitude Azimuth Distance (km) Brightness Sun altitude
Rises 12:53:50 0° 293° (WNW) 4,795 12.1 -52.3°
Reaches altitude 10° 12:57:33 10° 281° (WNW) 3,838 11.5 -53.2°
Enters shadow 13:03:19 25° 246° (WSW) 2,849 10.6 -54.6°
Maximum altitude 13:05:25 27° 227° (SW) 2,768 - -55.2°
Drops below altitude 10° 13:13:31 10° 173° (S) 3,934 - -57.2°
Sets 13:17:27 0° 161° (SSE) 4,935 - -58.2°
